Weather Service Report


505 
ASUS43 KTOP 302008
RWRKS 

WEATHER ROUNDUP FOR KANSAS
NATIONAL WEATHER SERVICE GOODLAND KS
300 PM CDT THU MAR 30 2017

NOTE:  "FAIR" INDICATES FEW OR NO CLOUDS BELOW 12,000 FEET WITH NO
SIGNIFICANT WEATHER AND/OR OBSTRUCTIONS TO VISIBILITY.

KSZ001>006-013>018-027>032-041>047-302100-
NORTHWEST KANSAS
  
CITY           SKY/WX    TMP DP  RH WIND       PRES   REMARKS
GOODLAND       SUNNY     55  41  59 N6        29.74F                  
HAYS             N/A     48  39  71 NW9G20    29.76F                  
HILL CITY      CLOUDY    45  38  76 N10       29.79F                  
RUSSELL        CLOUDY    47  39  74 NW16      29.74F                  
$$

KSZ061>065-074>080-084>089-302100-
SOUTHWEST KANSAS
  
CITY           SKY/WX    TMP DP  RH WIND       PRES   REMARKS
DODGE CITY       N/A     54  41  61 NW10      29.77F                  
ELKHART          N/A     60  42  51 SW2         N/A                   
GARDEN CITY    CLOUDY    54  40  59 NW10      29.76F                  
GREAT BEND     CLOUDY    47  40  76 NW15      29.76S                  
LIBERAL        MOSUNNY   57  43  58 NW7       29.79F                  
PRATT          CLOUDY    47  39  76 NW15      29.76S                  
$$

KSZ066>073-081>083-090>101-302100-
SOUTHEAST KANSAS
  
CITY           SKY/WX    TMP DP  RH WIND       PRES   REMARKS
CHANUTE        CLOUDY    48  44  86 NW21G28   29.64R                  
COFFEYVILLE    CLOUDY    49  44  83 W16       29.68R                  
HUTCHINSON     CLOUDY    48  40  73 MISG      29.72F                  
MEDICINE LODGE   N/A     51  39  63 NW14      29.74F                  
NEWTON         CLOUDY    45  41  87 NW18G24   29.71S                  
PARSONS        CLOUDY    50  44  80 NW20G26   29.67R                  
WICHITA INTL   CLOUDY    46  41  82 NW20G26   29.72S                  
WICHITA JABRA  CLOUDY    45  41  86 NW20G25   29.71S                  
WICHITA MCCONL CLOUDY    46  40  81 NW20      29.71R                  
WINFIELD       CLOUDY    48  41  76 NW20G25   29.74R                  
$$

KSZ007>012-019>026-033>040-048>060-102>105-302100-
NORTHEAST KANSAS
  
CITY           SKY/WX    TMP DP  RH WIND       PRES   REMARKS
CONCORDIA      CLOUDY    44  41  89 N14       29.72S                  
EMPORIA        CLOUDY    45  43  93 NW17      29.66R                  
LAWRENCE       CLOUDY    49  47  93 NW16      29.62R                  
MANHATTAN      CLOUDY    44  41  89 N9G16     29.69S                  
MARYSVILLE     CLOUDY    43  41  93 N14       29.69R                  
OLATHE IND     CLOUDY    50  47  89 N14       29.60R                  
OLATHE EXE     CLOUDY    52  49  89 N8        29.58S                  
SALINA         CLOUDY    47  42  83 N14       29.73S                  
TOPEKA BILLARD CLOUDY    47  45  93 N15       29.64R                  
TOPEKA FORBES  CLOUDY    48  45  89 NW14      29.64R                  
$$
  

Return to Home page


Western Regional Climate Center, wrcc@dri.edu